Date String (YYYY-MM-DD hh:mm:ss) UTC,Instrument flags,Ambient pressure (hPa),Sample flow (lpm),Bypass flow (lpm),Sample temperature (°C),Ambient temperature (°C),ASC tube jacket temperature (°C),LED temperature (°C),Box temperature (°C),Sample RH (%),Span deviation,Mass concentration (μg/m³),Mass concentration (μg/m³),Mass concentration (μg/m³)
DateTimeUTC,F1_M11,P_M11,Q1_M11,Q2_M11,T1_M11,T2_M11,T3_M11,T4_M11,T5_M11,U1_M11,ZSPAN_M11,X2_M11,X0_M11,X1_M11
2022-12-19 21:00:00,,0823.7,5.03,0.00,22.0,21.2,00.0,30.8,23.8,04.7,0000.0,0001.74,0008.27,0000.89
2022-12-19 21:01:00,,0823.6,4.99,0.00,22.0,20.9,00.0,30.8,23.7,04.6,0000.0,0001.75,0008.35,0000.89
2022-12-19 21:02:00,,0823.8,4.98,0.00,21.9,20.6,00.0,30.8,23.6,04.6,0000.0,0001.80,0008.25,0000.89
2022-12-19 21:03:00,,0823.8,5.04,0.00,21.9,20.4,00.0,30.8,23.5,04.6,0000.0,0001.80,0008.25,0000.89
2022-12-19 21:04:00,,0823.8,4.98,0.00,21.9,20.2,00.0,30.8,23.4,04.6,0000.0,0001.74,0007.93,0000.88
2022-12-19 21:05:00,,0823.8,4.98,0.00,21.8,20.2,00.0,30.7,23.4,04.7,0000.0,0001.55,0005.59,0000.87
2022-12-19 21:06:00,,0823.9,5.03,0.00,21.8,20.0,00.0,30.7,23.3,04.7,0000.0,0001.50,0005.07,0000.87
2022-12-19 21:07:00,,0823.8,5.02,0.00,21.7,19.9,00.0,30.7,23.2,04.7,0000.0,0001.47,0004.87,0000.88
2022-12-19 21:08:00,,0824.0,4.95,0.00,21.7,19.8,00.0,30.7,23.2,04.8,0000.0,0001.44,0004.79,0000.88
2022-12-19 21:09:00,,0824.0,5.03,0.00,21.7,20.7,00.0,30.6,23.4,04.9,0000.0,0001.40,0004.55,0000.88
2022-12-19 21:10:00,,0824.0,4.97,0.00,21.8,21.9,00.0,30.6,23.8,04.8,0000.0,0001.37,0003.81,0000.88
2022-12-19 21:11:00,,0823.9,5.04,0.00,21.9,22.1,00.0,30.7,23.9,04.8,0000.0,0001.34,0003.96,0000.87
2022-12-19 21:12:00,,0824.0,4.96,0.00,22.0,21.8,00.0,30.7,23.9,04.8,0000.0,0001.37,0004.44,0000.88
2022-12-19 21:13:00,,0824.0,5.04,0.00,22.0,21.4,00.0,30.8,23.8,04.8,0000.0,0001.36,0004.48,0000.88
2022-12-19 21:14:00,,0824.0,4.95,0.00,22.0,21.0,00.0,30.8,23.7,04.8,0000.0,0001.33,0004.41,0000.88
2022-12-19 21:15:00,,0824.1,5.04,0.00,21.9,20.7,00.0,30.8,23.6,04.7,0000.0,0001.33,0004.44,0000.88
2022-12-19 21:16:00,,0824.2,4.99,0.00,21.9,20.5,00.0,30.8,23.5,04.6,0000.0,0001.33,0004.41,0000.87
2022-12-19 21:17:00,,0824.1,4.99,0.00,21.9,20.4,00.0,30.8,23.5,04.7,0000.0,0001.34,0004.41,0000.87
2022-12-19 21:18:00,,0824.0,5.03,0.00,21.9,20.3,00.0,30.8,23.5,04.8,0000.0,0001.36,0004.68,0000.88
2022-12-19 21:19:00,,0824.1,4.97,0.00,21.8,20.2,00.0,30.7,23.4,04.8,0000.0,0001.43,0004.82,0000.88
2022-12-19 21:20:00,,0824.1,5.01,0.00,21.8,20.0,00.0,30.7,23.3,04.8,0000.0,0001.46,0004.71,0000.89
2022-12-19 21:21:00,,0824.2,5.03,0.00,21.8,20.5,00.0,30.7,23.4,04.7,0000.0,0001.49,0004.51,0000.89
2022-12-19 21:22:00,,0824.2,4.97,0.00,21.9,21.6,00.0,30.6,23.8,04.7,0000.0,0001.49,0003.98,0000.89
2022-12-19 21:23:00,,0824.3,5.03,0.00,22.0,22.2,00.0,30.7,24.0,04.7,0000.0,0001.46,0003.74,0000.88
2022-12-19 21:24:00,,0824.2,4.97,0.00,22.0,21.9,00.0,30.8,24.0,04.8,0000.0,0001.45,0003.72,0000.87
2022-12-19 21:25:00,,0824.2,4.98,0.00,22.0,21.5,00.0,30.8,23.9,04.8,0000.0,0001.44,0003.73,0000.87
2022-12-19 21:26:00,,0824.2,5.00,0.00,22.0,21.2,00.0,30.8,23.8,04.8,0000.0,0001.43,0003.65,0000.87
2022-12-19 21:27:00,,0824.4,5.02,0.00,22.0,20.9,00.0,30.8,23.7,04.8,0000.0,0001.41,0003.60,0000.88
2022-12-19 21:28:00,,0824.3,4.96,0.00,22.0,20.7,00.0,30.8,23.6,04.8,0000.0,0001.39,0003.57,0000.87
2022-12-19 21:29:00,,0824.4,5.02,0.00,22.0,20.5,00.0,30.8,23.6,04.9,0000.0,0001.39,0003.52,0000.87
2022-12-19 21:30:00,,0824.4,5.02,0.00,21.9,20.4,00.0,30.8,23.5,04.8,0000.0,0001.35,0003.72,0000.86
2022-12-19 21:31:00,,0824.4,4.96,0.00,21.9,20.4,00.0,30.8,23.5,04.7,0000.0,0001.34,0003.72,0000.86
2022-12-19 21:32:00,,0824.4,5.03,0.00,21.9,20.3,00.0,30.8,23.4,04.7,0000.0,0001.32,0003.86,0000.86
2022-12-19 21:33:00,,0824.4,5.01,0.00,21.8,20.2,00.0,30.8,23.4,04.8,0000.0,0001.31,0003.35,0000.86
2022-12-19 21:34:00,,0824.5,4.95,0.00,21.8,20.1,00.0,30.7,23.4,04.8,0000.0,0001.31,0002.96,0000.86
2022-12-19 21:35:00,,0824.4,5.01,0.00,21.8,20.1,00.0,30.7,23.3,04.8,0000.0,0001.27,0002.90,0000.85
2022-12-19 21:36:00,,0824.5,5.03,0.00,21.8,20.6,00.0,30.7,23.5,04.7,0000.0,0001.24,0002.82,0000.85
2022-12-19 21:37:00,,0824.6,4.97,0.00,21.9,21.8,00.0,30.7,23.8,04.8,0000.0,0001.23,0002.81,0000.85
2022-12-19 21:38:00,,0824.6,4.99,0.00,22.0,22.3,00.0,30.7,24.0,04.8,0000.0,0001.27,0003.02,0000.85
2022-12-19 21:39:00,,0824.6,4.99,0.00,22.0,21.9,00.0,30.8,24.0,04.7,0000.0,0001.33,0003.94,0000.85
2022-12-19 21:40:00,,0824.7,5.01,0.00,22.0,21.6,00.0,30.8,23.9,04.7,0000.0,0001.34,0004.27,0000.84
2022-12-19 21:41:00,,0824.5,4.99,0.00,22.1,21.3,00.0,30.8,23.8,04.9,0000.0,0001.35,0003.99,0000.84
2022-12-19 21:42:00,,0824.6,5.02,0.00,22.0,21.1,00.0,30.8,23.8,04.8,0000.0,0001.31,0003.90,0000.84
2022-12-19 21:43:00,,0824.7,4.95,0.00,22.0,20.9,00.0,30.8,23.7,04.7,0000.0,0001.31,0004.66,0000.84
2022-12-19 21:44:00,,0824.6,5.04,0.00,22.0,20.8,00.0,30.8,23.7,04.8,0000.0,0001.31,0004.62,0000.85
2022-12-19 21:45:00,,0824.5,4.99,0.00,22.0,20.7,00.0,30.8,23.7,04.8,0000.0,0001.31,0004.91,0000.85
2022-12-19 21:46:00,,0824.6,4.99,0.00,22.0,20.6,00.0,30.8,23.7,04.9,0000.0,0001.33,0005.49,0000.86
2022-12-19 21:47:00,,0824.6,5.03,0.00,22.0,20.5,00.0,30.8,23.6,04.9,0000.0,0001.39,0005.63,0000.87
2022-12-19 21:48:00,,0824.8,4.95,0.00,21.9,20.5,00.0,30.8,23.7,04.8,0000.0,0001.43,0005.78,0000.87
2022-12-19 21:49:00,,0824.6,5.03,0.00,21.9,20.4,00.0,30.8,23.6,04.8,0000.0,0001.43,0005.76,0000.87
2022-12-19 21:50:00,,0824.6,5.03,0.00,21.9,20.3,00.0,30.8,23.5,04.7,0000.0,0001.38,0005.41,0000.88
2022-12-19 21:51:00,,0824.6,4.95,0.00,21.9,20.3,00.0,30.8,23.4,04.8,0000.0,0001.41,0006.31,0000.90
2022-12-19 21:52:00,,0824.7,5.04,0.00,21.9,20.7,00.0,30.7,23.6,04.9,0000.0,0001.39,0007.08,0000.90
2022-12-19 21:53:00,,0824.6,4.97,0.00,22.0,21.8,00.0,30.7,23.9,04.7,0000.0,0001.38,0007.06,0000.90
2022-12-19 21:54:00,,0824.6,5.03,0.00,22.1,22.3,00.0,30.8,24.1,04.8,0000.0,0001.39,0006.39,0000.91
2022-12-19 21:55:00,,0824.6,4.97,0.00,22.2,22.1,00.0,30.8,24.1,04.8,0000.0,0001.39,0006.18,0000.90
2022-12-19 21:56:00,,0824.7,5.04,0.00,22.2,21.7,00.0,30.9,24.0,04.8,0000.0,0001.39,0006.50,0000.91
2022-12-19 21:57:00,,0824.6,4.95,0.00,22.2,21.4,00.0,30.9,24.0,04.7,0000.0,0001.41,0005.83,0000.91
2022-12-19 21:58:00,,0824.8,5.04,0.00,22.1,21.1,00.0,30.9,23.9,04.7,0000.0,0001.39,0005.74,0000.91
2022-12-19 21:59:00,,0824.9,4.97,0.00,22.1,20.9,00.0,30.9,23.8,04.7,0000.0,0001.35,0005.88,0000.90
